Hourly Weather Roundup
Issued by NWS Central Illinois

Home | Current Version | Previous Version | Text Only | Print | Product List | Glossary On
Versions: 1 2 3 4 5 6 7 8 9 10 11 12 13 14 15 16 17 18 19 20 21 22 23 24 25 26 27 28 29 30 31 32 33 34 35 36 37 38 39 40 41 42 43 44 45 46 47 48 49 50
000
NZUS43 KILX 141810
HWRILX

AREA WEATHER ROUNDUP
NATIONAL WEATHER SERVICE, LINCOLN IL
1200 PM CST SUN FEB 14 2016


CITY           SKY/WX    TMP DP  RH WIND       PRES   REMARKS
BLOOMINGTON    LGT SNOW  18  16  92 SE17      30.14F VSB 3/4 WCI   3
6HR MIN TEMP:  15; 6HR MAX TEMP:  18; 6HR PCP: TRACE;

CHAMPAIGN      SNOW      19  15  84 SE18G24   30.17F VSB 1/2 WCI   4
6HR MIN TEMP:  15; 6HR MAX TEMP:  19; 6HR PCP: TRACE;

DANVILLE       SNOW      17  14  88 E15       30.16F VSB 1/4 WCI   2
6HR MIN TEMP:  15; 6HR MAX TEMP:  18;

DECATUR        SNOW      19  15  84 SE16      30.14F VSB 1/4 WCI   4
6HR MIN TEMP:  16; 6HR MAX TEMP:  19; 6HR PCP: TRACE;

EFFINGHAM      SNOW      22  20  93 E14       30.18F VSB 1/4 WCI   9
FLORA          SNOW      24  21  89 SE8       30.19F VSB 1/4 WCI  15
6HR MIN TEMP:  22; 6HR MAX TEMP:  24;

GALESBURG      FLURRIES  18  14  85 SE12G22   30.07F WCI   5
JACKSONVILLE   FLURRIES  22  18  84 SE17      30.08F WCI   8
6HR MIN TEMP:  21; 6HR MAX TEMP:  23;

LACON          LGT SNOW  19  13  80 SE16G22   30.14F WCI   4
6HR MIN TEMP:  16; 6HR MAX TEMP:  19; 6HR PCP:  0.01;

LAWRENCEVILLE  LGT SNOW  21  17  84 SE13      30.23F FOG     WCI   9
6HR MIN TEMP:  18; 6HR MAX TEMP:  22; 6HR PCP: TRACE;

LITCHFIELD     LGT SNOW  21  18  86 SE9       30.11S WCI  11
$$


CITY           SKY/WX    TMP DP  RH WIND       PRES   REMARKS
LINCOLN        SNOW      20  18  90 SE13      30.14F VSB 1/4 WCI   7
6HR MIN TEMP:  17; 6HR MAX TEMP:  20;

MACOMB         CLOUDY    19  16  89 SE17      30.09F WCI   4
MATTOON        HVY SNOW  19  15  84 SE14      30.15F VSB 1/4 WCI   6
6HR MIN TEMP:  15; 6HR MAX TEMP:  19; 6HR PCP: TRACE;

MT CARMEL AP   LGT SNOW  23  18  80 SE10      30.22R WCI  12
OLNEY-NOBLE AP LGT SNOW  23  19  86 E8        30.19F WCI  14
PARIS          LGT SNOW  19  16  88 SE13G20   30.19F VSB 3/4 WCI   6
6HR MIN TEMP:  15; 6HR MAX TEMP:  19;

PEORIA         LGT SNOW  20  14  77 SE16G29   30.13F WCI   6
6HR MIN TEMP:  16; 6HR MAX TEMP:  20; 6HR PCP:  0.09;

PONTIAC        LGT SNOW  19  16  89 SE17      30.19F VSB 3/4 WCI   3
RANTOUL        LGT SNOW  19  16  87 SE16      30.18R VSB 3/4 WCI   5
6HR MIN TEMP:  17; 6HR MAX TEMP:  20; 6HR PCP:  0.01;

ROBINSON       LGT SNOW  20  16  82 SE10      30.24F WCI   9
6HR MIN TEMP:  16; 6HR MAX TEMP:  21;

SPRINGFIELD    LGT SNOW  22  18  85 SE14      30.11F VSB 1   WCI   9
6HR MIN TEMP:  19; 6HR MAX TEMP:  21; 6HR PCP:  0.17;

TAYLORVILLE    LGT SNOW  19  18  93 SE8       30.14F VSB 1   WCI   9
$$

...REGIONAL REPORTS...


CITY           SKY/WX    TMP DP  RH WIND       PRES   REMARKS
CHICAGO O`HARE LGT SNOW  16   6  65 SE14      30.23F WCI   2
KANKAKEE       SNOW      17  13  84 E13       30.22F VSB 1/2 WCI   4
MOLINE         LGT SNOW  18  12  77 SE14      30.10F VSB 3/4 WCI   4
MOUNT STERLING CLOUDY    19  16  85 SE14      30.05F WCI   6
MOUNT VERNON   CLOUDY    23  16  74 E9        30.15F WCI  13
PITTSFIELD     CLOUDY    22  19  87 SE13      30.06F WCI  10
QUINCY         CLOUDY    21  16  81 SE14      30.02F WCI   8
ROCKFORD       SNOW      15  11  83 SE13G22   30.20F VSB 1/4 WCI   1
$$


CITY           SKY/WX    TMP DP  RH WIND       PRES   REMARKS
BURLINGTON     CLOUDY    18  15  88 SE14      30.04F WCI   4
CEDAR RAPIDS   LGT SNOW  18  14  84 SE18G25   30.01F VSB 1   WCI   2
DES MOINES     CLOUDY    22  15  75 SE13      29.93F WCI  10
KIRKSVILLE     CLOUDY    23  18  81 SE13      29.96F WCI  11
OTTUMWA        LGT SNOW  20  17  88 SE12      29.97F VSB 1   WCI   8
ST LOUIS       LGT SNOW  25  18  74 SE13G25   30.07F WCI  13
$$


CITY           SKY/WX    TMP DP  RH WIND       PRES   REMARKS
TERRE HAUTE    LGT SNOW  20  14  77 SE13      30.23F WCI   7
EVANSVILLE     SNOW      24  18  77 SE12G20   30.20F VSB 1/2 WCI  13
INDIANAPOLIS   LGT SNOW  19  10  68 SE10      30.24F WCI   7
LAFAYETTE      SNOW      17  12  80 SE13      30.27R VSB 1/2 WCI   4
MADISON        LGT SNOW  14   8  77 SE13      30.16F WCI   0
MILWAUKEE      CLOUDY    19  10  68 SE15      30.23F WCI   5
$$





USA.gov is the U.S. government's official web portal to all federal, state and local government web resources and services.